This is the latest recevied weather packets stored in our database for station/object KE5YIM-13. If no packets are shown the sender has not sent any weather packets the latest 10 day(s).
| Time | Temp. | Humidity | Pressure | Rain* | Wind** | Luminosity | Snow |
|---|---|---|---|---|---|---|---|
| 1777928539 | 18.89° C | 49% | 1010.3 hPa | 0 mm | - | 365 W/m² | - |
| 1777928236 | 18.89° C | 50% | 1010.4 hPa | 0 mm | - | 381 W/m² | - |
| 1777927934 | 18.89° C | 49% | 1010.3 hPa | 0 mm | - | 401 W/m² | - |
| 1777927632 | 18.89° C | 50% | 1010.5 hPa | 0 mm | - | 415 W/m² | - |
| 1777927330 | 18.89° C | 50% | 1010.5 hPa | 0 mm | - | 417 W/m² | - |
| 1777927029 | 18.89° C | 49% | 1010.6 hPa | 0 mm | - | 428 W/m² | - |
| 1777926726 | 18.89° C | 51% | 1010.5 hPa | 0 mm | - | 461 W/m² | - |
| 1777926426 | 18.89° C | 50% | 1010.6 hPa | 0 mm | - | 472 W/m² | - |
| 1777926123 | 19.44° C | 50% | 1010.7 hPa | 0 mm | - | 472 W/m² | - |
| 1777925820 | 18.89° C | 49% | 1010.8 hPa | 0 mm | - | 492 W/m² | - |
| 1777925518 | 19.44° C | 48% | 1010.9 hPa | 0 mm | - | 508 W/m² | - |
| 1777925215 | 19.44° C | 47% | 1010.7 hPa | 0 mm | - | 523 W/m² | - |
| 1777924911 | 19.44° C | 46% | 1010.6 hPa | 0 mm | - | 536 W/m² | - |
| 1777924607 | 19.44° C | 48% | 1010.5 hPa | 0 mm | - | 547 W/m² | - |
| 1777924303 | 19.44° C | 47% | 1010.7 hPa | 0 mm | - | 564 W/m² | - |
| 1777924000 | 19.44° C | 46% | 1010.6 hPa | 0 mm | - | 574 W/m² | - |
| 1777923697 | 19.44° C | 47% | 1010.7 hPa | 0 mm | - | 589 W/m² | - |
| 1777923393 | 20° C | 45% | 1010.9 hPa | 0 mm | - | 602 W/m² | - |
| 1777923091 | 20° C | 47% | 1010.7 hPa | 0 mm | - | 614 W/m² | - |
| 1777922789 | 20° C | 46% | 1010.8 hPa | 0 mm | - | 626 W/m² | - |
| 1777922487 | 20.56° C | 44% | 1010.8 hPa | 0 mm | - | 638 W/m² | - |
| 1777922185 | 20° C | 43% | 1010.7 hPa | 0 mm | - | 649 W/m² | - |
| 1777921881 | 20.56° C | 47% | 1010.8 hPa | 0 mm | - | 653 W/m² | - |
| 1777921577 | 20.56° C | 41% | 1010.8 hPa | 0 mm | - | 668 W/m² | - |
| 1777921274 | 20.56° C | 43% | 1011.1 hPa | 0 mm | - | 682 W/m² | - |
* Rain latest hour (hover to see other rain measurements)
** Current wind speed in m/s (hover to see current wind gust speed)